Weather in Milwaukee

United States     43°02′27″N   87°54′23″W
temp.,
°C
wind,
m/s
gust,
m/s
humid.,
%
clouds,
%
prec.,
mm/h
press.,
hPa
HPBL,
m
23 may, mon
mon2301:00+8sw117280 0.1 102937
04:00+6nnw23765 0.0 102952
07:00+8nne24675 0.0 1029170
10:00+12ne44582 0.0 10291095
13:00+13ene435121 0.0 10281440
16:00+12ene4349100 0.0 10271010
19:00+11ene235099 0.0 1026313
22:00+8ne245847 0.0 1026123
24 may, tue
tue2401:00+7ne2272100 0.0 102538
04:00+8nne2476100 0.0 102592
07:00+10ne358098 0.0 1026228
10:00+13e447131 0.0 1025839
13:00+15e4560100 0.0 1025873
16:00+14e4651100 0.0 1023675
19:00+12ne3766100 0.0 1023289
22:00+10ne4107891 0.0 1024293
25 may, wed
wed2501:00+11ene41179100 0.0 1022319
04:00+11e61376100 0.0 1020439
07:00+11e61579100 0.0 1019506
10:00+10e81997100 6.6 1015611
13:00+13ese61799100 9.3 1013747
16:00+16se71697100 0.9 1009625
19:00+19ssw4119573 6.1 1007527
22:00+17sw5139798 0.0 1009683
26 may, thu
thu2601:00+15wsw51496100 0.0 1011589
04:00+12w51395100 0.0 1012367
07:00+11nw3894100 0.0 1013321
10:00+14nnw2382100 0.0 1013438
13:00+17ese127299 0.0 1013758
16:00+16e3279100 0.0 1012308
19:00+13ne3483100 0.0 1013284
22:00+12nne3887100 0.0 1013328
27 may, fri
fri2701:00+12nne51079100 0.0 1012536
04:00+10nne51388100 0.5 1012530
07:00+9nne61294100 1.3 1012478
10:00+9nne61395100 0.4 1012504
13:00+10nne61291100 0.6 1012524
16:00+10nne61390100 0.2 1012527
19:00+10nne51294100 1.0 1012479
22:00+10nne4119185 0.3 1013397